,,,PA_Meas_PMT16A,,PR_Meas_QMR101_102,,RH_Meas_QMH101,,SR_Meas_QMS101,,TA_Meas_QMH101,,GenWind,,GenWind,
date,time,status,PA,status,PR,status,RH,status,SR,status,TA,status,DirAvg,status,SpdAvg,
2011-10-16, 00:00:04,VALID,1001.83,VALID,0,VALID,85.4746,VALID,0,VALID,24.9308,VALID,128,VALID,0.921094,
2011-10-16, 00:01:04,VALID,1001.8,VALID,0,VALID,85.4441,VALID,0,VALID,24.9503,VALID,128,VALID,0.81875,
2011-10-16, 00:02:04,VALID,1001.81,VALID,0,VALID,85.0321,VALID,0,VALID,24.9503,VALID,107,VALID,0.972266,
2011-10-16, 00:03:04,VALID,1001.77,VALID,0,VALID,84.8414,VALID,0,VALID,24.9698,VALID,102,VALID,0.932813,
2011-10-16, 00:04:04,VALID,1001.77,VALID,0,VALID,84.8948,VALID,0,VALID,24.9874,VALID,102,VALID,0.782812,
2011-10-16, 00:05:04,VALID,1001.76,VALID,0,VALID,84.9406,VALID,0,VALID,25.0088,VALID,102,VALID,0.692187,
2011-10-16, 00:06:04,VALID,1001.73,VALID,0,VALID,85.5815,VALID,0,VALID,25.0284,VALID,82,VALID,0.818359,
2011-10-16, 00:07:04,VALID,1001.73,VALID,0,VALID,86.558,VALID,0,VALID,25.0088,VALID,82,VALID,0.671875,
2011-10-16, 00:08:04,VALID,1001.7,VALID,0,VALID,87.176,VALID,0,VALID,24.9698,VALID,82,VALID,0.650391,
2011-10-16, 00:09:04,VALID,1001.65,VALID,0,VALID,87.5804,VALID,0,VALID,24.9698,VALID,82,VALID,0.518359,
2011-10-16, 00:10:04,VALID,1001.62,VALID,0,VALID,87.733,VALID,0,VALID,24.8917,VALID,82,VALID,0.558984,
2011-10-16, 00:11:04,VALID,1001.59,VALID,0,VALID,88.0687,VALID,0,VALID,24.8136,VALID,60,VALID,0.689453,
2011-10-16, 00:12:04,VALID,1001.56,VALID,0,VALID,88.6791,VALID,0,VALID,24.7746,VALID,37,VALID,0.774609,
2011-10-16, 00:13:04,VALID,1001.54,VALID,0,VALID,89.2589,VALID,0,VALID,24.6965,VALID,37,VALID,1.12148,
2011-10-16, 00:14:04,VALID,1001.51,VALID,0,VALID,89.7854,VALID,0,VALID,24.6575,VALID,30,VALID,1.42109,
2011-10-16, 00:15:04,VALID,1001.49,VALID,0,VALID,90.0219,VALID,0,VALID,24.5989,VALID,21,VALID,1.83477,
2011-10-16, 00:16:04,VALID,1001.49,VALID,0,VALID,89.8846,VALID,0,VALID,24.5404,VALID,26,VALID,1.60547,
2011-10-16, 00:17:04,VALID,1001.45,VALID,0,VALID,89.7625,VALID,0,VALID,24.5404,VALID,30,VALID,1.46875,
2011-10-16, 00:18:04,VALID,1001.46,VALID,0,VALID,89.6938,VALID,0,VALID,24.5013,VALID,33,VALID,1.25781,
2011-10-16, 00:19:04,VALID,1001.44,VALID,0,VALID,89.7777,VALID,0,VALID,24.4818,VALID,31,VALID,1.12031,
2011-10-16, 00:20:04,VALID,1001.42,VALID,0,VALID,89.6786,VALID,0,VALID,24.4623,VALID,24,VALID,1.33867,
2011-10-16, 00:21:04,VALID,1001.42,VALID,0,VALID,89.6633,VALID,0,VALID,24.4409,VALID,24,VALID,1.14141,
2011-10-16, 00:22:04,VALID,1001.42,VALID,0,VALID,89.8006,VALID,0,VALID,24.4428,VALID,24,VALID,1.16523,
2011-10-16, 00:23:04,VALID,1001.39,VALID,0,VALID,89.8693,VALID,0,VALID,24.4233,VALID,48,VALID,1.44023,
2011-10-16, 00:24:04,VALID,1001.34,VALID,0,VALID,89.6938,VALID,0,VALID,24.4037,VALID,42,VALID,1.29023,
2011-10-16, 00:25:04,VALID,1001.33,VALID,0,VALID,89.7777,VALID,0,VALID,24.4037,VALID,48,VALID,1.22422,
2011-10-16, 00:26:04,VALID,1001.3,VALID,0,VALID,89.8388,VALID,0,VALID,24.4037,VALID,58,VALID,1.26797,
2011-10-16, 00:27:04,VALID,1001.25,VALID,0,VALID,89.9837,VALID,0,VALID,24.4233,VALID,59,VALID,1.37578,
2011-10-16, 00:28:04,VALID,1001.21,VALID,0,VALID,90.144,VALID,0,VALID,24.4233,VALID,64,VALID,1.55547,
2011-10-16, 00:29:04,VALID,1001.22,VALID,0,VALID,90.411,VALID,0,VALID,24.4428,VALID,71,VALID,1.50195,
2011-10-16, 00:30:04,VALID,1001.2,VALID,0,VALID,90.7467,VALID,0,VALID,24.4428,VALID,73,VALID,1.6,
2011-10-16, 00:31:04,VALID,1001.18,VALID,0,VALID,90.8077,VALID,0,VALID,24.4037,VALID,65,VALID,1.32852,
2011-10-16, 00:32:04,VALID,1001.18,VALID,0,VALID,90.7696,VALID,0,VALID,24.3647,VALID,65,VALID,1.31328,
2011-10-16, 00:33:04,VALID,1001.2,VALID,0,VALID,90.8688,VALID,0,VALID,24.3452,VALID,65,VALID,1.16602,
2011-10-16, 00:34:04,VALID,1001.16,VALID,0,VALID,90.9909,VALID,0,VALID,24.3238,VALID,65,VALID,1.20664,
2011-10-16, 00:35:04,VALID,1001.15,VALID,0,VALID,91.0824,VALID,0,VALID,24.3257,VALID,60,VALID,1.27266,
2011-10-16, 00:36:04,VALID,1001.16,VALID,0,VALID,91.2121,VALID,0,VALID,24.3257,VALID,50,VALID,1.30156,
2011-10-16, 00:37:04,VALID,1001.14,VALID,0,VALID,91.2426,VALID,0,VALID,24.3062,VALID,50,VALID,1.26953,
2011-10-16, 00:38:04,VALID,1001.16,VALID,0,VALID,91.235,VALID,0,VALID,24.3062,VALID,46,VALID,1.22695,
2011-10-16, 00:39:04,VALID,1001.18,VALID,0,VALID,91.2274,VALID,0,VALID,24.3062,VALID,46,VALID,1.06523,
2011-10-16, 00:40:04,VALID,1001.15,VALID,0,VALID,91.2121,VALID,0,VALID,24.2866,VALID,46,VALID,1.05,
2011-10-16, 00:41:04,VALID,1001.15,VALID,0,VALID,91.2121,VALID,0,VALID,24.2866,VALID,47,VALID,0.843359,
2011-10-16, 00:42:04,VALID,1001.13,VALID,0,VALID,91.2426,VALID,0,VALID,24.2866,VALID,47,VALID,0.797656,
2011-10-16, 00:43:04,VALID,1001.12,VALID,0,VALID,91.2731,VALID,0,VALID,24.2866,VALID,65,VALID,0.598047,
2011-10-16, 00:44:04,VALID,1001.13,VALID,0,VALID,91.2655,VALID,0,VALID,24.2866,VALID,79,VALID,0.79375,
2011-10-16, 00:45:04,VALID,1001.09,VALID,0,VALID,91.2503,VALID,0,VALID,24.2671,VALID,79,VALID,0.689453,
2011-10-16, 00:46:04,VALID,1001.1,VALID,0,VALID,91.2274,VALID,0,VALID,24.2653,VALID,106,VALID,0.842578,
2011-10-16, 00:47:04,VALID,1001.06,VALID,0,VALID,91.1587,VALID,0,VALID,24.2671,VALID,136,VALID,0.957812,
2011-10-16, 00:48:04,VALID,1001.07,VALID,0,VALID,91.0443,VALID,0,VALID,24.2281,VALID,122,VALID,1.23789,
2011-10-16, 00:49:04,VALID,1001.05,VALID,0,VALID,90.7467,VALID,0,VALID,24.2086,VALID,107,VALID,1.09102,
2011-10-16, 00:50:04,VALID,1001.03,VALID,0,VALID,90.7009,VALID,0,VALID,24.2086,VALID,90,VALID,1.00469,
2011-10-16, 00:51:04,VALID,1000.98,VALID,0,VALID,90.7238,VALID,0,VALID,24.2281,VALID,90,VALID,0.85625,
2011-10-16, 00:52:04,VALID,1000.97,VALID,0,VALID,90.7467,VALID,0,VALID,24.2067,VALID,90,VALID,1.00156,
2011-10-16, 00:53:04,VALID,1000.93,VALID,0,VALID,90.7162,VALID,0,VALID,24.2281,VALID,91,VALID,0.849609,
2011-10-16, 00:54:04,VALID,1000.93,VALID,0,VALID,90.7467,VALID,0,VALID,24.2086,VALID,100,VALID,0.949609,
2011-10-16, 00:55:04,VALID,1000.93,VALID,0,VALID,90.7772,VALID,0,VALID,24.1872,VALID,105,VALID,1.03164,
2011-10-16, 00:56:04,VALID,1000.91,VALID,0,VALID,90.762,VALID,0,VALID,24.2281,VALID,124,VALID,1.30664,
2011-10-16, 00:57:04,VALID,1000.91,VALID,0,VALID,90.7467,VALID,0,VALID,24.2476,VALID,124,VALID,1.51328,
2011-10-16, 00:58:04,VALID,1000.9,VALID,0,VALID,90.8154,VALID,0,VALID,24.2476,VALID,122,VALID,1.59961,
2011-10-16, 00:59:04,VALID,1000.91,VALID,0,VALID,90.884,VALID,0,VALID,24.2476,VALID,113,VALID,1.90625,
2011-10-16, 01:00:04,VALID,1000.93,VALID,0,VALID,90.9298,VALID,0,VALID,24.2671,VALID,113,VALID,1.66602,
2011-10-16, 01:01:04,VALID,1000.94,VALID,0,VALID,90.9298,VALID,0,VALID,24.2476,VALID,114,VALID,1.21602,
2011-10-16, 01:02:04,VALID,1000.92,VALID,0,VALID,90.8688,VALID,0,VALID,24.2281,VALID,112,VALID,1.17656,
2011-10-16, 01:03:04,VALID,1000.93,VALID,0,VALID,90.7238,VALID,0,VALID,24.2281,VALID,121,VALID,1.37266,
2011-10-16, 01:04:04,VALID,1000.9,VALID,0,VALID,90.5254,VALID,0,VALID,24.2281,VALID,119,VALID,1.10352,
2011-10-16, 01:05:04,VALID,1000.91,VALID,0,VALID,90.2431,VALID,0,VALID,24.2476,VALID,130,VALID,0.990234,
2011-10-16, 01:06:04,VALID,1000.84,VALID,0,VALID,89.9532,VALID,0,VALID,24.2281,VALID,129,VALID,0.707812,
2011-10-16, 01:07:04,VALID,1000.84,VALID,0,VALID,89.7014,VALID,0,VALID,24.2281,VALID,129,VALID,0.642578,
2011-10-16, 01:08:04,VALID,1000.79,VALID,0,VALID,89.5489,VALID,0,VALID,24.2086,VALID,129,VALID,0.404687,
2011-10-16, 01:09:04,VALID,1000.78,VALID,0,VALID,89.4497,VALID,0,VALID,24.2086,VALID,129,VALID,0.376563,
2011-10-16, 01:10:04,VALID,1000.74,VALID,0,VALID,89.3352,VALID,0,VALID,24.2086,VALID,129,VALID,0.567969,
2011-10-16, 01:11:04,VALID,1000.74,VALID,0,VALID,89.2437,VALID,0,VALID,24.2086,VALID,129,VALID,0.732813,
2011-10-16, 01:12:04,VALID,1000.69,VALID,0,VALID,89.3657,VALID,0,VALID,24.1696,VALID,12,VALID,1.025,
2011-10-16, 01:13:04,VALID,1000.68,VALID,0,VALID,89.8006,VALID,0,VALID,24.111,VALID,10,VALID,0.660547,
2011-10-16, 01:14:04,VALID,1000.66,VALID,0,VALID,90.0371,VALID,0,VALID,24.0915,VALID,10,VALID,0.585547,
2011-10-16, 01:15:04,VALID,1000.63,VALID,0,VALID,90.144,VALID,0,VALID,24.072,VALID,10,VALID,0.569531,
2011-10-16, 01:16:04,VALID,1000.64,VALID,0,VALID,90.1516,VALID,0,VALID,24.0525,VALID,10,VALID,0.544141,
2011-10-16, 01:17:04,VALID,1000.62,VALID,0,VALID,90.0753,VALID,0,VALID,24.0134,VALID,10,VALID,0.566797,
2011-10-16, 01:18:04,VALID,1000.64,VALID,0,VALID,89.9532,VALID,0,VALID,23.9726,VALID,10,VALID,0.585156,
2011-10-16, 01:19:04,VALID,1000.62,VALID,0,VALID,89.8311,VALID,0,VALID,23.9939,VALID,10,VALID,0.0546875,
2011-10-16, 01:20:04,VALID,1000.63,VALID,0,VALID,89.8464,VALID,0,VALID,23.9354,VALID,10,VALID,0,
2011-10-16, 01:21:04,VALID,1000.63,VALID,0,VALID,90.0143,VALID,0,VALID,23.9354,VALID,10,VALID,0.155859,
2011-10-16, 01:22:04,VALID,1000.63,VALID,0,VALID,90.1974,VALID,0,VALID,23.8963,VALID,10,VALID,0,
2011-10-16, 01:23:04,VALID,1000.65,VALID,0,VALID,90.2966,VALID,0,VALID,23.8963,VALID,10,VALID,0,
2011-10-16, 01:24:04,VALID,1000.66,VALID,0,VALID,90.3423,VALID,0,VALID,23.8945,VALID,10,VALID,0,
2011-10-16, 01:25:04,VALID,1000.69,VALID,0,VALID,90.411,VALID,0,VALID,23.9354,VALID,10,VALID,0.419141,
2011-10-16, 01:26:04,VALID,1000.72,VALID,0,VALID,90.4797,VALID,0,VALID,23.9354,VALID,10,VALID,0.525,
2011-10-16, 01:27:04,VALID,1000.75,VALID,0,VALID,90.3042,VALID,0,VALID,23.8555,VALID,10,VALID,0.574219,
2011-10-16, 01:28:04,VALID,1000.75,VALID,0,VALID,90.2508,VALID,0,VALID,23.8573,VALID,10,VALID,0.533203,
2011-10-16, 01:29:04,VALID,1000.74,VALID,0,VALID,90.2126,VALID,0,VALID,23.8378,VALID,10,VALID,0.495703,
2011-10-16, 01:30:04,VALID,1000.75,VALID,0,VALID,90.3576,VALID,0,VALID,23.7775,VALID,10,VALID,0.565234,
2011-10-16, 01:31:04,VALID,1000.75,VALID,0,VALID,90.5178,VALID,0,VALID,23.7793,VALID,25,VALID,0.796875,
2011-10-16, 01:32:04,VALID,1000.71,VALID,0,VALID,90.6094,VALID,0,VALID,23.7597,VALID,42,VALID,0.85625,
2011-10-16, 01:33:04,VALID,1000.69,VALID,0,VALID,90.8764,VALID,0,VALID,23.7579,VALID,42,VALID,0.511719,
2011-10-16, 01:34:04,VALID,1000.65,VALID,0,VALID,91.0137,VALID,0,VALID,23.7988,VALID,42,VALID,0.361719,
2011-10-16, 01:35:04,VALID,1000.67,VALID,0,VALID,91.0366,VALID,0,VALID,23.7988,VALID,42,VALID,0.304688,
2011-10-16, 01:36:04,VALID,1000.65,VALID,0,VALID,91.0366,VALID,0,VALID,23.7988,VALID,42,VALID,0.392188,
2011-10-16, 01:37:04,VALID,1000.61,VALID,0,VALID,91.0824,VALID,0,VALID,23.797,VALID,42,VALID,0.501562,
2011-10-16, 01:38:04,VALID,1000.6,VALID,0,VALID,91.0595,VALID,0,VALID,23.7775,VALID,42,VALID,0.364844,
2011-10-16, 01:39:04,VALID,1000.59,VALID,0,VALID,90.8306,VALID,0,VALID,23.7402,VALID,42,VALID,0.250391,
2011-10-16, 01:40:04,VALID,1000.55,VALID,0,VALID,90.7009,VALID,0,VALID,23.7012,VALID,42,VALID,0.44375,
2011-10-16, 01:41:04,VALID,1000.54,VALID,0,VALID,90.762,VALID,0,VALID,23.6427,VALID,42,VALID,0.280469,
2011-10-16, 01:42:04,VALID,1000.53,VALID,0,VALID,91.0443,VALID,0,VALID,23.6214,VALID,42,VALID,0.155469,
2011-10-16, 01:43:04,VALID,1000.5,VALID,0,VALID,91.3037,VALID,0,VALID,23.6036,VALID,42,VALID,0.114063,
2011-10-16, 01:44:04,VALID,1000.52,VALID,0,VALID,91.3876,VALID,0,VALID,23.5628,VALID,42,VALID,0.00625,
2011-10-16, 01:45:04,VALID,1000.54,VALID,0,VALID,91.5249,VALID,0,VALID,23.5628,VALID,42,VALID,0.195313,
2011-10-16, 01:46:04,VALID,1000.54,VALID,0,VALID,91.647,VALID,0,VALID,23.5841,VALID,42,VALID,0.241797,
2011-10-16, 01:47:04,VALID,1000.57,VALID,0,VALID,91.7309,VALID,0,VALID,23.5823,VALID,42,VALID,0.210156,
2011-10-16, 01:48:04,VALID,1000.61,VALID,0,VALID,91.7767,VALID,0,VALID,23.6019,VALID,42,VALID,0.145313,
2011-10-16, 01:49:04,VALID,1000.62,VALID,0,VALID,91.7767,VALID,0,VALID,23.6427,VALID,42,VALID,0,
2011-10-16, 01:50:04,VALID,1000.65,VALID,0,VALID,91.7462,VALID,0,VALID,23.6214,VALID,42,VALID,0,
2011-10-16, 01:51:04,VALID,1000.68,VALID,0,VALID,91.7309,VALID,0,VALID,23.6622,VALID,42,VALID,0.298438,
2011-10-16, 01:52:04,VALID,1000.67,VALID,0,VALID,91.6241,VALID,0,VALID,23.6817,VALID,42,VALID,0.308984,
2011-10-16, 01:53:04,VALID,1000.67,VALID,0,VALID,91.4105,VALID,0,VALID,23.6817,VALID,42,VALID,0.217187,
2011-10-16, 01:54:04,VALID,1000.67,VALID,0,VALID,91.2197,VALID,0,VALID,23.7012,VALID,42,VALID,0.342578,
2011-10-16, 01:55:04,VALID,1000.69,VALID,0,VALID,91.0671,VALID,0,VALID,23.7012,VALID,42,VALID,0.530859,
2011-10-16, 01:56:04,VALID,1000.69,VALID,0,VALID,90.8306,VALID,0,VALID,23.7012,VALID,42,VALID,0.430078,
2011-10-16, 01:57:04,VALID,1000.74,VALID,0,VALID,90.617,VALID,0,VALID,23.7207,VALID,42,VALID,0.586328,
2011-10-16, 01:58:04,VALID,1000.76,VALID,0,VALID,90.6628,VALID,0,VALID,23.7597,VALID,42,VALID,0.666016,
2011-10-16, 01:59:04,VALID,1000.79,VALID,0,VALID,90.617,VALID,0,VALID,23.8183,VALID,42,VALID,0.748438,
2011-10-16, 02:00:04,VALID,1000.82,VALID,0,VALID,90.5331,VALID,0,VALID,23.797,VALID,42,VALID,0.608594,
2011-10-16, 02:01:04,VALID,1000.84,VALID,0,VALID,90.2737,VALID,0,VALID,23.7988,VALID,42,VALID,0.379687,
2011-10-16, 02:02:04,VALID,1000.85,VALID,0,VALID,90.1668,VALID,0,VALID,23.7793,VALID,42,VALID,0.292188,
2011-10-16, 02:03:04,VALID,1000.89,VALID,0,VALID,90.144,VALID,0,VALID,23.6994,VALID,42,VALID,0,
2011-10-16, 02:04:04,VALID,1000.89,VALID,0,VALID,89.9837,VALID,0,VALID,23.6817,VALID,42,VALID,0.0410156,
2011-10-16, 02:05:04,VALID,1000.89,VALID,0,VALID,90.0448,VALID,0,VALID,23.6036,VALID,42,VALID,0.264062,
2011-10-16, 02:06:04,VALID,1000.89,VALID,0,VALID,90.3194,VALID,0,VALID,23.5823,VALID,175,VALID,0.721094,
2011-10-16, 02:07:04,VALID,1000.89,VALID,0,VALID,90.556,VALID,0,VALID,23.6232,VALID,175,VALID,0.614062,
2011-10-16, 02:08:04,VALID,1000.89,VALID,0,VALID,90.6094,VALID,0,VALID,23.6622,VALID,175,VALID,0.589844,
2011-10-16, 02:09:04,VALID,1000.88,VALID,0,VALID,90.5178,VALID,0,VALID,23.6622,VALID,175,VALID,0.537891,
2011-10-16, 02:10:04,VALID,1000.86,VALID,0,VALID,90.6399,VALID,0,VALID,23.6817,VALID,175,VALID,0.319922,
2011-10-16, 02:11:04,VALID,1000.85,VALID,0,VALID,90.4186,VALID,0,VALID,23.6622,VALID,175,VALID,0,
2011-10-16, 02:12:04,VALID,1000.84,VALID,0,VALID,90.3118,VALID,0,VALID,23.6427,VALID,175,VALID,0.0746094,
2011-10-16, 02:13:04,VALID,1000.82,VALID,0,VALID,90.3728,VALID,0,VALID,23.6232,VALID,175,VALID,0.383203,
2011-10-16, 02:14:04,VALID,1000.8,VALID,0,VALID,90.7696,VALID,0,VALID,23.6036,VALID,104,VALID,0.606641,
2011-10-16, 02:15:04,VALID,1000.83,VALID,0,VALID,90.9909,VALID,0,VALID,23.6427,VALID,104,VALID,0.792188,
2011-10-16, 02:16:04,VALID,1000.8,VALID,0,VALID,90.8306,VALID,0,VALID,23.6036,VALID,35,VALID,1.11211,
2011-10-16, 02:17:04,VALID,1000.82,VALID,0,VALID,90.4568,VALID,0,VALID,23.5061,VALID,33,VALID,1.61055,
2011-10-16, 02:18:04,VALID,1000.79,VALID,0,VALID,90.7543,VALID,0,VALID,23.3872,VALID,32,VALID,1.77617,
2011-10-16, 02:19:04,VALID,1000.81,VALID,0,VALID,91.1206,VALID,0,VALID,23.2915,VALID,30,VALID,1.96133,
2011-10-16, 02:20:04,VALID,1000.77,VALID,0,VALID,91.5249,VALID,0,VALID,23.2329,VALID,30,VALID,1.92891,
2011-10-16, 02:21:04,VALID,1000.77,VALID,0,VALID,91.8988,VALID,0,VALID,23.2134,VALID,24,VALID,1.90156,
2011-10-16, 02:22:04,VALID,1000.77,VALID,0,VALID,92.1124,VALID,0,VALID,23.1744,VALID,23,VALID,1.89727,
2011-10-16, 02:23:04,VALID,1000.79,VALID,0,VALID,92.2268,VALID,0,VALID,23.1354,VALID,27,VALID,2.00859,
2011-10-16, 02:24:04,VALID,1000.79,VALID,0,VALID,92.3184,VALID,0,VALID,23.0964,VALID,25,VALID,1.7957,
2011-10-16, 02:25:04,VALID,1000.8,VALID,0,VALID,92.3947,VALID,0,VALID,23.0556,VALID,21,VALID,1.72461,
2011-10-16, 02:26:04,VALID,1000.76,VALID,0,VALID,92.4634,VALID,0,VALID,23.0573,VALID,21,VALID,1.69219,
2011-10-16, 02:27:04,VALID,1000.77,VALID,0,VALID,92.5397,VALID,0,VALID,23.0361,VALID,21,VALID,1.61563,
2011-10-16, 02:28:04,VALID,1000.75,VALID,0,VALID,92.616,VALID,0,VALID,23.0964,VALID,21,VALID,1.30234,
2011-10-16, 02:29:04,VALID,1000.72,VALID,0,VALID,92.6083,VALID,0,VALID,23.0964,VALID,21,VALID,0.930469,
2011-10-16, 02:30:04,VALID,1000.72,VALID,0,VALID,92.5778,VALID,0,VALID,23.0769,VALID,21,VALID,0.842578,
2011-10-16, 02:31:04,VALID,1000.74,VALID,0,VALID,92.5626,VALID,0,VALID,23.0573,VALID,21,VALID,0.386719,
2011-10-16, 02:32:04,VALID,1000.72,VALID,0,VALID,92.5397,VALID,0,VALID,23.0361,VALID,21,VALID,0.620313,
2011-10-16, 02:33:04,VALID,1000.71,VALID,0,VALID,92.5778,VALID,0,VALID,23.0573,VALID,21,VALID,0.418359,
2011-10-16, 02:34:04,VALID,1000.75,VALID,0,VALID,92.6923,VALID,0,VALID,23.1549,VALID,21,VALID,0.840625,
2011-10-16, 02:35:04,VALID,1000.72,VALID,0,VALID,92.7762,VALID,0,VALID,23.1744,VALID,178,VALID,0.764063,
2011-10-16, 02:36:04,VALID,1000.73,VALID,0,VALID,92.7304,VALID,0,VALID,23.1726,VALID,165,VALID,0.717578,
2011-10-16, 02:37:04,VALID,1000.72,VALID,0,VALID,92.7228,VALID,0,VALID,23.2329,VALID,123,VALID,0.671094,
2011-10-16, 02:38:04,VALID,1000.69,VALID,0,VALID,92.738,VALID,0,VALID,23.2719,VALID,123,VALID,0.375391,
2011-10-16, 02:39:04,VALID,1000.69,VALID,0,VALID,92.6694,VALID,0,VALID,23.2507,VALID,124,VALID,0.417969,
2011-10-16, 02:40:04,VALID,1000.69,VALID,0,VALID,92.5854,VALID,0,VALID,23.2702,VALID,123,VALID,0.144922,
2011-10-16, 02:41:04,VALID,1000.68,VALID,0,VALID,92.4557,VALID,0,VALID,23.2719,VALID,124,VALID,0.00195313,
2011-10-16, 02:42:04,VALID,1000.7,VALID,0,VALID,92.2955,VALID,0,VALID,23.2719,VALID,124,VALID,0.515625,
2011-10-16, 02:43:04,VALID,1000.69,VALID,0,VALID,92.2955,VALID,0,VALID,23.311,VALID,124,VALID,0.48125,
2011-10-16, 02:44:04,VALID,1000.68,VALID,0,VALID,92.2803,VALID,0,VALID,23.3305,VALID,125,VALID,0.163672,
2011-10-16, 02:45:04,VALID,1000.68,VALID,0,VALID,92.2879,VALID,0,VALID,23.311,VALID,125,VALID,0.288281,
2011-10-16, 02:46:04,VALID,1000.68,VALID,0,VALID,92.3108,VALID,0,VALID,23.3305,VALID,125,VALID,0.185937,
2011-10-16, 02:47:04,VALID,1000.66,VALID,0,VALID,92.2879,VALID,0,VALID,23.35,VALID,125,VALID,0.3875,
2011-10-16, 02:48:04,VALID,1000.69,VALID,0,VALID,92.2192,VALID,0,VALID,23.35,VALID,125,VALID,0.557813,
2011-10-16, 02:49:04,VALID,1000.67,VALID,0,VALID,92.1963,VALID,0,VALID,23.3695,VALID,125,VALID,0.611719,
2011-10-16, 02:50:04,VALID,1000.69,VALID,0,VALID,92.2345,VALID,0,VALID,23.389,VALID,125,VALID,0.194141,
2011-10-16, 02:51:04,VALID,1000.71,VALID,0,VALID,92.204,VALID,0,VALID,23.389,VALID,125,VALID,0.0613281,
2011-10-16, 02:52:04,VALID,1000.69,VALID,0,VALID,92.204,VALID,0,VALID,23.389,VALID,125,VALID,0.553516,
2011-10-16, 02:53:04,VALID,1000.72,VALID,0,VALID,92.1658,VALID,0,VALID,23.3695,VALID,125,VALID,0.342969,
2011-10-16, 02:54:04,VALID,1000.68,VALID,0,VALID,91.9903,VALID,0,VALID,23.311,VALID,123,VALID,0.560547,
2011-10-16, 02:55:04,VALID,1000.65,VALID,0,VALID,92.0285,VALID,0,VALID,23.311,VALID,84,VALID,1.04805,
2011-10-16, 02:56:04,VALID,1000.65,VALID,0,VALID,91.8988,VALID,0,VALID,23.2915,VALID,83,VALID,1.04922,
2011-10-16, 02:57:04,VALID,1000.59,VALID,0,VALID,91.4563,VALID,0,VALID,23.2524,VALID,84,VALID,1.13555,
2011-10-16, 02:58:04,VALID,1000.57,VALID,0,VALID,91.1816,VALID,0,VALID,23.2134,VALID,86,VALID,1.06836,
2011-10-16, 02:59:04,VALID,1000.57,VALID,0,VALID,91.4563,VALID,0,VALID,23.1939,VALID,86,VALID,0.604688,
2011-10-16, 03:00:04,VALID,1000.51,VALID,0,VALID,91.4105,VALID,0,VALID,23.1957,VALID,86,VALID,0.530859,
2011-10-16, 03:01:04,VALID,1000.52,VALID,0,VALID,91.2655,VALID,0,VALID,23.0964,VALID,17,VALID,0.651172,
2011-10-16, 03:02:04,VALID,1000.51,VALID,0,VALID,91.4639,VALID,0,VALID,23.0573,VALID,17,VALID,0.46875,
2011-10-16, 03:03:04,VALID,1000.53,VALID,0,VALID,91.6699,VALID,0,VALID,23.0573,VALID,17,VALID,0.496484,
2011-10-16, 03:04:04,VALID,1000.54,VALID,0,VALID,91.8683,VALID,0,VALID,23.0573,VALID,17,VALID,0.313672,
2011-10-16, 03:05:04,VALID,1000.54,VALID,0,VALID,92.0209,VALID,0,VALID,23.0183,VALID,17,VALID,0.344531,
2011-10-16, 03:06:04,VALID,1000.59,VALID,0,VALID,92.059,VALID,0,VALID,22.9793,VALID,17,VALID,0.576953,
2011-10-16, 03:07:04,VALID,1000.59,VALID,0,VALID,92.2726,VALID,0,VALID,22.9793,VALID,17,VALID,0.526563,
2011-10-16, 03:08:04,VALID,1000.61,VALID,0,VALID,92.471,VALID,0,VALID,22.9793,VALID,17,VALID,0.676172,
2011-10-16, 03:09:04,VALID,1000.59,VALID,0,VALID,92.5778,VALID,0,VALID,22.9988,VALID,17,VALID,0.658984,
2011-10-16, 03:10:04,VALID,1000.58,VALID,0,VALID,92.6617,VALID,0,VALID,22.9793,VALID,17,VALID,0.8625,
2011-10-16, 03:11:04,VALID,1000.61,VALID,0,VALID,92.6923,VALID,0,VALID,22.9403,VALID,17,VALID,1.04062,
2011-10-16, 03:12:04,VALID,1000.62,VALID,0,VALID,92.7685,VALID,0,VALID,22.9598,VALID,17,VALID,0.865234,
2011-10-16, 03:13:04,VALID,1000.62,VALID,0,VALID,92.8372,VALID,0,VALID,22.9403,VALID,21,VALID,0.891797,
2011-10-16, 03:14:04,VALID,1000.63,VALID,0,VALID,92.7609,VALID,0,VALID,22.8818,VALID,21,VALID,1.18828,
2011-10-16, 03:15:04,VALID,1000.67,VALID,0,VALID,92.616,VALID,0,VALID,22.8427,VALID,55,VALID,1.24922,
2011-10-16, 03:16:04,VALID,1000.7,VALID,0,VALID,92.4939,VALID,0,VALID,22.7842,VALID,61,VALID,1.24883,
2011-10-16, 03:17:04,VALID,1000.68,VALID,0,VALID,92.4176,VALID,0,VALID,22.7452,VALID,75,VALID,1.23008,
2011-10-16, 03:18:04,VALID,1000.66,VALID,0,VALID,92.5015,VALID,0,VALID,22.7257,VALID,75,VALID,0.954687,
2011-10-16, 03:19:04,VALID,1000.67,VALID,0,VALID,92.6617,VALID,0,VALID,22.7257,VALID,75,VALID,0.903906,
2011-10-16, 03:20:04,VALID,1000.66,VALID,0,VALID,92.8372,VALID,0,VALID,22.7257,VALID,75,VALID,0.707812,
2011-10-16, 03:21:04,VALID,1000.69,VALID,0,VALID,92.9059,VALID,0,VALID,22.7062,VALID,73,VALID,1.11563,
2011-10-16, 03:22:04,VALID,1000.68,VALID,0,VALID,92.9822,VALID,0,VALID,22.7062,VALID,62,VALID,1.63125,
2011-10-16, 03:23:04,VALID,1000.7,VALID,0,VALID,93.0203,VALID,0,VALID,22.6867,VALID,58,VALID,1.63437,
2011-10-16, 03:24:04,VALID,1000.74,VALID,0,VALID,93.0432,VALID,0,VALID,22.6264,VALID,57,VALID,1.38789,
2011-10-16, 03:25:04,VALID,1000.75,VALID,0,VALID,93.1043,VALID,0,VALID,22.5892,VALID,57,VALID,1.43281,
2011-10-16, 03:26:04,VALID,1000.77,VALID,0,VALID,93.1271,VALID,0,VALID,22.5696,VALID,58,VALID,1.11094,
2011-10-16, 03:27:04,VALID,1000.77,VALID,0,VALID,93.1577,VALID,0,VALID,22.5501,VALID,58,VALID,0.738281,
2011-10-16, 03:28:04,VALID,1000.75,VALID,0,VALID,93.2111,VALID,0,VALID,22.5111,VALID,58,VALID,0.637109,
2011-10-16, 03:29:04,VALID,1000.74,VALID,0,VALID,93.2568,VALID,0,VALID,22.4721,VALID,58,VALID,0.601953,
2011-10-16, 03:30:04,VALID,1000.69,VALID,0,VALID,93.2721,VALID,0,VALID,22.4721,VALID,58,VALID,0.501953,
2011-10-16, 03:31:04,VALID,1000.72,VALID,0,VALID,93.3179,VALID,0,VALID,22.4526,VALID,58,VALID,0.566406,
2011-10-16, 03:32:04,VALID,1000.7,VALID,0,VALID,93.3408,VALID,0,VALID,22.4314,VALID,7,VALID,0.602344,
2011-10-16, 03:33:04,VALID,1000.69,VALID,0,VALID,93.3789,VALID,0,VALID,22.4331,VALID,21,VALID,0.683594,
2011-10-16, 03:34:04,VALID,1000.7,VALID,0,VALID,93.4018,VALID,0,VALID,22.4136,VALID,21,VALID,0.525781,
2011-10-16, 03:35:04,VALID,1000.66,VALID,0,VALID,93.4705,VALID,0.104696,VALID,22.4136,VALID,21,VALID,0.617188,
2011-10-16, 03:36:04,VALID,1000.63,VALID,0,VALID,93.5163,VALID,0,VALID,22.4331,VALID,21,VALID,0.488281,
2011-10-16, 03:37:04,VALID,1000.62,VALID,0,VALID,93.5468,VALID,0,VALID,22.4331,VALID,21,VALID,0.350391,
2011-10-16, 03:38:04,VALID,1000.62,VALID,0,VALID,93.5544,VALID,0,VALID,22.4136,VALID,21,VALID,0.170703,
2011-10-16, 03:39:04,VALID,1000.62,VALID,0,VALID,93.5697,VALID,0,VALID,22.4331,VALID,21,VALID,0.722656,
2011-10-16, 03:40:04,VALID,1000.6,VALID,0,VALID,93.6307,VALID,0,VALID,22.4721,VALID,21,VALID,0.334375,
2011-10-16, 03:41:04,VALID,1000.61,VALID,0,VALID,93.6612,VALID,0,VALID,22.4916,VALID,21,VALID,0.287891,
2011-10-16, 03:42:04,VALID,1000.63,VALID,0,VALID,93.6765,VALID,0,VALID,22.5323,VALID,21,VALID,0.512109,
2011-10-16, 03:43:04,VALID,1000.66,VALID,0,VALID,93.7375,VALID,0,VALID,22.5501,VALID,21,VALID,0.2375,
2011-10-16, 03:44:04,VALID,1000.68,VALID,0,VALID,93.7528,VALID,0,VALID,22.5501,VALID,21,VALID,0,
2011-10-16, 03:45:04,VALID,1000.69,VALID,0,VALID,93.7757,VALID,0,VALID,22.5501,VALID,21,VALID,0,
2011-10-16, 03:46:04,VALID,1000.69,VALID,0,VALID,93.7757,VALID,0,VALID,22.5306,VALID,21,VALID,0,
2011-10-16, 03:47:04,VALID,1000.69,VALID,0,VALID,93.7833,VALID,0,VALID,22.5501,VALID,21,VALID,0.206641,